Weather History for KMHS - October, 2012

Change the Weather History Date:

Monday, October 15, 2012

  Actual Average Record
Temperature  
Mean Temperature 62 °F 52 °F  
Max Temperature 74 °F 67 °F 85 °F (1961)
Min Temperature 50 °F 37 °F 27 °F (1981)
Degree Days  
Heating Degree Days 3 13  
Month to date heating degree days 105 163  
Since 1 July heating degree days 150 400  
Cooling Degree Days 0 0  
Month to date cooling degree days 4 0  
Year to date cooling degree days 392 287  
Growing Degree Days 11 (Base 50)    
Moisture  
Dew Point 48 °F    
Average Humidity 65    
Maximum Humidity 86    
Minimum Humidity 41    
Precipitation  
Precipitation T in 0.07 in 0.90 in (1924)
Month to date precipitation T 0.68  
Year to date precipitation 24.56 28.68  
Sea Level Pressure  
Sea Level Pressure 30.11 in    
Wind  
Wind Speed 0 mph (North)    
Max Wind Speed 6 mph    
Max Gust Speed 14 mph    
Visibility 10 miles    
Events      
T = Trace of Precipitation, MM = Missing Value Source: NWS Daily Summary

Daily Weather History Graph

Daily Weather History Graph

Search for Another Location

Airport or City:

Trip Planner

Search our weather history database for the weather conditions in past years. The results will help you decide how hot, cold, wet, or windy it might be!

Date:

Astronomy

Oct. 15, 2012 Rise Set
Actual Time 7:21 AM PDT 6:27 PM PDT
Civil Twilight 6:53 AM PDT 6:55 PM PDT
Nautical Twilight 6:21 AM PDT 7:27 PM PDT
Astronomical Twilight 5:49 AM PDT 7:59 PM PDT
Moon 7:39 AM PDT (10/15) 6:29 PM PDT (10/15)
Length of Visible Light 12h 01m
Length of Day
11h 05m
New Moon, 0% of the Moon is Illuminated
Oct 15
New Moon
Oct 21
First Quarter
Oct 29
Full
Nov 6
Last Quarter
Nov 13
New

Hourly Weather History & Observations

Time (PDT) Temp. Dew Point Humidity Pressure Visibility Wind Dir Wind Speed Gust Speed Precip Events Conditions
12:56 AM 52.0 °F 46.9 °F 83% 30.14 in 10.0 mi Calm Calm - N/A   Mostly Cloudy
1:56 AM 52.0 °F 46.9 °F 83% 30.13 in 10.0 mi Calm Calm - N/A   Overcast
2:56 AM 50.0 °F 46.9 °F 89% 30.14 in 10.0 mi Calm Calm - N/A   Partly Cloudy
3:56 AM 50.0 °F 46.0 °F 86% 30.14 in 10.0 mi Calm Calm - N/A   Mostly Cloudy
4:56 AM 51.1 °F 45.0 °F 80% 30.14 in 10.0 mi Calm Calm - N/A   Overcast
5:56 AM 51.1 °F 46.0 °F 83% 30.15 in 10.0 mi Calm Calm - N/A   Overcast
6:56 AM 50.0 °F 46.0 °F 86% 30.16 in 10.0 mi Calm Calm - N/A   Partly Cloudy
7:56 AM 50.0 °F 46.0 °F 86% 30.18 in 10.0 mi Calm Calm - N/A   Mostly Cloudy
8:56 AM 55.9 °F 46.9 °F 72% 30.19 in 10.0 mi Calm Calm - N/A   Overcast
9:56 AM 57.9 °F 48.0 °F 70% 30.19 in 10.0 mi Calm Calm - N/A   Overcast
10:56 AM 66.0 °F 45.0 °F 47% 30.17 in 10.0 mi Calm Calm - N/A   Clear
11:56 AM 68.0 °F 46.9 °F 47% 30.14 in 10.0 mi Calm Calm - N/A   Scattered Clouds
12:56 PM 72.0 °F 46.9 °F 41% 30.11 in 10.0 mi Calm Calm - N/A   Clear
1:56 PM 71.1 °F 46.9 °F 42% 30.10 in 10.0 mi Variable 3.5 mph - N/A   Scattered Clouds
2:56 PM 72.0 °F 48.0 °F 43% 30.07 in 10.0 mi Calm Calm - N/A   Mostly Cloudy
3:56 PM 71.1 °F 46.9 °F 42% 30.06 in 10.0 mi Calm Calm - N/A   Overcast
4:56 PM 68.0 °F 48.0 °F 49% 30.05 in 10.0 mi Variable 3.5 mph - N/A   Overcast
5:56 PM 66.9 °F 48.0 °F 51% 30.06 in 10.0 mi Calm Calm - N/A   Mostly Cloudy
6:56 PM 63.0 °F 51.1 °F 65% 30.05 in 10.0 mi Calm Calm - N/A   Scattered Clouds
7:56 PM 63.0 °F 48.9 °F 60% 30.06 in 10.0 mi Calm Calm - N/A   Mostly Cloudy
8:56 PM 62.1 °F 48.0 °F 60% 30.05 in 10.0 mi Calm Calm - N/A   Scattered Clouds
9:56 PM 62.1 °F 48.9 °F 62% 30.05 in 10.0 mi Calm Calm - N/A   Overcast
10:56 PM 61.0 °F 51.1 °F 70% 30.02 in 10.0 mi Calm Calm - N/A   Mostly Cloudy
11:56 PM 62.1 °F 53.1 °F 72% 30.00 in 10.0 mi Calm Calm - N/A   Overcast